AMOS-17

Last updated on Jan. 29, 2020, 4:37 a.m. UTC

1 44479U 19050A   20028.78991963  .00000108  00000-0  00000-0 0  9996
2 44479   0.0142  77.9370 0000492 336.1234  14.7712  1.00271456  1826
UTC
Height (km)
Latitude
Longitude
Inclination
Orbital Period
UTC large
Height (km)
Speed (km/s)
/
Latitude / Longitude
Inclination (degrees)
Orbital Period (minutes)
Azimuth
Elevation
Range (km)
Doppler Factor
iOS Compass Heading
iOS Angle

Next 30 passes for location: Hong Kong

Rise time Rise Azimuth (degrees) Set time Set Azimuth (degrees) Duration Max altitude (degrees)

No matching passes for this satellites